Flag for Isle of Man Weather past 2 weeks in Douglas, Isle of Man

Now
43 °F

Passing clouds.


Feels Like: 33 °F
Forecast: 41 / 47 °F
Wind: 25 mph from Northwest

Location: Isle Of Man / Ronaldsway Airport

Current Time: Mar 31, 2015 at 8:25:23 AM

Latest Report: Mar 31, 2015 at 7:50 AM


Visibility: N/A

Pressure: 29.59 "Hg

Humidity: 81%

Dew point: 37 °F

Location of DouglasLocation

Historic Weather in Douglas — Graph

°F

Douglas temperature yesterday

Maximum temperature yesterday: 52 °F (at 9:50 PM)
Minimum temperature yesterday: 41 °F (at 2:50 AM)
Average temperature yesterday: 45 °F

Past Weeks' High & Low Weather Summary

 TemperatureHumidityPressure
High54 °F (Mar 28, 11:50 AM)100% (Mar 26, 3:50 AM)30.60 "Hg (Mar 26, 3:50 AM)
Low34 °F (Mar 18, 12:50 AM)46% (Mar 26, 6:50 PM)29.18 "Hg (Mar 30, 9:50 PM)
Average45 °F79%30.01 "Hg
* Reported Mar 16 6:20 AM — Mar 31 7:20 AM, Douglas, Weather by CustomWeather, © 2015

Note: Actual official high and low records may vary slightly from our data, if they occured in-between our weather recording intervals... More about our weather records

Advertising

Douglas weather history for previous 24 hours

 ConditionsComfort  
Time TempWeatherWind HumidityBarometerVisibility
7:20 AM
Tue, Mar 31
43 °FPassing clouds.28 mph81%29.59 "HgN/A
6:50 AM43 °FPassing clouds.32 mph81%29.53 "HgN/A
6:20 AM43 °FPassing clouds.25 mph87%29.50 "HgN/A
5:50 AM45 °FPartly cloudy.26 mph76%29.47 "HgN/A
5:20 AM45 °FPassing clouds.30 mph81%29.45 "HgN/A
4:50 AM45 °FPassing clouds.35 mph81%29.39 "HgN/A
3:50 AM46 °FPassing clouds.37 mph76%29.33 "HgN/A
2:50 AM46 °FPassing clouds.39 mph82%29.27 "HgN/A
1:50 AM48 °FPassing clouds.29 mph76%29.24 "HgN/A
12:50 AM48 °FPassing clouds.31 mph76%29.21 "HgN/A
11:50 PM
Mon, Mar 30
50 °FPassing clouds.29 mph71%29.18 "HgN/A
10:50 PM50 °FPassing clouds.29 mph82%29.18 "HgN/A
9:50 PM52 °FPassing clouds.32 mph82%29.18 "HgN/A
9:20 PM50 °FPassing clouds.25 mph88%29.21 "HgN/A
8:50 PM50 °FOvercast.23 mph94%29.24 "HgN/A
8:20 PM50 °FPassing clouds.28 mph94%29.24 "HgN/A
7:50 PM48 °FRain. More clouds than sun.28 mph100%29.30 "HgN/A
7:20 PM48 °FRain. More clouds than sun.26 mph94%29.33 "Hg4 mi
6:50 PM46 °FRain. Low clouds.23 mph100%29.36 "Hg3 mi
6:20 PM46 °FRain. Low clouds.26 mph100%29.39 "Hg4 mi
5:50 PM46 °FRain. Mostly cloudy.32 mph100%29.42 "Hg4 mi
5:20 PM46 °FLight rain. Low clouds.36 mph93%29.42 "Hg4 mi
4:50 PM46 °FRain. Mostly cloudy.29 mph93%29.45 "Hg4 mi
4:20 PM45 °FLight rain. Mostly cloudy.25 mph100%29.50 "Hg5 mi
3:50 PM45 °FRain. Mostly cloudy.23 mph93%29.56 "Hg6 mi
3:20 PM45 °FRain. Broken clouds.25 mph93%29.59 "Hg5 mi
2:50 PM45 °FRain. Cloudy.23 mph93%29.62 "Hg6 mi
2:20 PM45 °FRain. Mostly cloudy.22 mph87%29.65 "Hg6 mi
1:50 PM45 °FLight rain. Mostly cloudy.23 mph81%29.68 "Hg6 mi
1:20 PM46 °FPassing clouds.21 mph71%29.68 "HgN/A
12:50 PM46 °FPassing clouds.22 mph76%29.68 "HgN/A
12:20 PM48 °FPassing clouds.28 mph66%29.71 "HgN/A
11:50 AM45 °FPassing clouds.24 mph76%29.71 "HgN/A
11:20 AM45 °FPassing clouds.25 mph71%29.71 "HgN/A
10:50 AM45 °FPassing clouds.26 mph71%29.74 "HgN/A
10:20 AM45 °FPassing clouds.22 mph71%29.71 "HgN/A
9:50 AM43 °FPassing clouds.20 mph76%29.74 "HgN/A
9:20 AM43 °FPassing clouds.18 mph76%29.71 "HgN/A
8:50 AM43 °FPassing clouds.17 mph76%29.74 "HgN/A
8:20 AM43 °FPassing clouds.14 mph76%29.71 "HgN/A
Weather by CustomWeather, © 2015

See weather overviewHow to use our weather pages